Weather History for Sisseton, SD

Change the Weather History Date:

Saturday, January 18, 2014

  Actual Average Record
Temperature  
Mean Temperature 25 °F 13 °F  
Max Temperature 35 °F 23 °F 48 °F (1944)
Min Temperature 14 °F 3 °F -28 °F (1994)
Degree Days  
Heating Degree Days 40 52  
Month to date heating degree days 961 936  
Since 1 July heating degree days 4540 4275  
Cooling Degree Days 0 0  
Month to date cooling degree days 0 0  
Year to date cooling degree days 0 0  
Moisture  
Dew Point 19 °F    
Average Humidity 81    
Maximum Humidity 96    
Minimum Humidity 66    
Precipitation  
Precipitation 0.05 in 0.02 in 0.14 in (1996)
Month to date precipitation 0.13 0.28  
Year to date precipitation 0.13 0.28  
Snow  
Snow 0.00 in - - ()
Month to date snowfall 1.2  
Since 1 July snowfall 14.3  
Snow Depth -    
Sea Level Pressure  
Sea Level Pressure 29.82 in    
Wind  
Wind Speed 21 mph (NW)    
Max Wind Speed 41 mph    
Max Gust Speed 49 mph    
T = Trace of Precipitation, MM = Missing Value Source: NWS Daily Summary

Daily Weather History Graph

Daily Weather History Graph

Search for Another Location

Airport:

Trip Planner

Search our weather history database for the weather conditions in past years. The results will help you decide how hot, cold, wet, or windy it might be!

Date:

Astronomy

Jan. 18, 2014 Rise Set
Actual Time 8:02 AM CST 5:14 PM CST
Civil Twilight 7:29 AM CST 5:47 PM CST
Nautical Twilight 6:53 AM CST 6:24 PM CST
Astronomical Twilight 6:17 AM CST 6:59 PM CST
Moon 8:08 PM CST (1/18) 8:53 AM CST (1/18)
Length of Visible Light 10h 17m
Length of Day
9h 11m
Waning Gibbous, 94% of the Moon is Illuminated
Jan 18
Waning Gibbous
Jan 23
Last Quarter
Jan 30
New
Feb 6
First Quarter
Feb 14
Full

Hourly Weather History & Observations

Time (CST) Temp. Windchill Dew Point Humidity Pressure Visibility Wind Dir Wind Speed Gust Speed Precip Events Conditions
12:56 AM 32.0 °F 20.8 °F 28.0 °F 85% 29.53 in - WNW 17.3 mph 23.0 mph N/A   Unknown
1:56 AM 33.1 °F 21.2 °F 28.9 °F 85% 29.49 in - NW 20.7 mph 29.9 mph 0.02 in   Unknown
2:56 AM 35.1 °F 23.0 °F 30.9 °F 85% 29.49 in - NNW 24.2 mph 29.9 mph N/A   Unknown
3:56 AM 34.0 °F 21.5 °F 32.0 °F 92% 29.47 in - NNW 24.2 mph 35.7 mph 0.02 in   Unknown
4:56 AM 30.9 °F 15.5 °F 26.1 °F 82% 29.50 in - North 33.4 mph 44.9 mph 0.01 in   Unknown
5:56 AM 25.0 °F 6.9 °F 21.9 °F 88% 29.57 in - North 35.7 mph 46.0 mph N/A   Unknown
6:56 AM 21.0 °F 2.7 °F 18.0 °F 88% 29.68 in - North 29.9 mph 40.3 mph N/A   Unknown
7:56 AM 16.0 °F -4.1 °F 12.0 °F 84% 29.79 in - North 29.9 mph 36.8 mph N/A   Unknown
8:56 AM 14.0 °F -4.7 °F 10.0 °F 84% 29.89 in - North 23.0 mph 31.1 mph N/A   Unknown
9:56 AM 15.1 °F -4.4 °F 10.0 °F 80% 29.98 in - North 26.5 mph 32.2 mph N/A   Unknown
10:56 AM 15.1 °F -3.3 °F 10.9 °F 84% 30.02 in - North 23.0 mph 27.6 mph N/A   Unknown
11:56 AM 17.1 °F 0.6 °F 10.9 °F 77% 30.04 in - North 19.6 mph - N/A   Unknown
12:56 PM 18.0 °F 3.1 °F 12.0 °F 78% 30.03 in - North 16.1 mph - N/A   Unknown
1:56 PM 19.0 °F 3.6 °F 14.0 °F 81% 30.04 in - NNW 18.4 mph - N/A   Unknown
2:56 PM 19.0 °F 4.0 °F 14.0 °F 81% 30.05 in - NNW 17.3 mph - N/A   Unknown
3:56 PM 19.0 °F 7.5 °F 14.0 °F 81% 30.04 in - NW 10.4 mph - N/A   Unknown
4:56 PM 19.9 °F 9.3 °F 17.1 °F 89% 30.04 in - NW 9.2 mph - N/A   Unknown
5:56 PM 23.0 °F 13.9 °F 19.0 °F 85% 30.02 in - WNW 8.1 mph - N/A   Unknown
6:56 PM 24.1 °F 14.4 °F 19.0 °F 81% 29.98 in - West 9.2 mph - N/A   Unknown
7:56 PM 28.0 °F 17.0 °F 21.9 °F 78% 29.92 in - West 13.8 mph - N/A   Unknown
8:56 PM 28.9 °F 14.8 °F 24.1 °F 82% 29.83 in - West 24.2 mph 34.5 mph N/A   Unknown
9:56 PM 30.9 °F 15.7 °F 25.0 °F 79% 29.77 in - West 32.2 mph 40.3 mph N/A   Unknown
10:56 PM 30.0 °F 19.5 °F 24.1 °F 79% 29.76 in - WNW 13.8 mph 25.3 mph N/A   Unknown
11:56 PM 33.1 °F 19.6 °F 24.1 °F 70% 29.69 in - West 27.6 mph 38.0 mph N/A   Unknown